Noatak, AK

9:10 PM AKDT on April 28, 2017 (GMT -0800)
Noatak

Weather History for PAWN - March, 2014

Change the Weather History Date:

Sunday, March 23, 2014

  Actual Average Record
Temperature  
Mean Temperature 13 °F -  
Max Temperature 26 °F 10 °F 32 °F (1998)
Min Temperature 0 °F -1 °F -34 °F (2007)
Degree Days  
Heating Degree Days 52    
Moisture  
Dew Point 0 °F    
Average Humidity 60    
Maximum Humidity 92    
Minimum Humidity 41    
Precipitation  
Precipitation 0.00 in - - ()
Sea Level Pressure  
Sea Level Pressure 30.53 in    
Wind  
Wind Speed 5 mph (NNE)    
Max Wind Speed 10 mph    
Max Gust Speed -    
Visibility 10 miles    
Events      
Averages and records for this station are not official NWS values.
T = Trace of Precipitation, MM = Missing Value Source: NWS Daily Summary

Daily Weather History Graph

Daily Weather History Graph

Search for Another Location

Airport or City:

Trip Planner

Search our weather history database for the weather conditions in past years. The results will help you decide how hot, cold, wet, or windy it might be!

Date:

Astronomy

Mar. 23, 2014 Rise Set
Actual Time 8:38 AM AKDT 9:20 PM AKDT
Civil Twilight 7:43 AM AKDT 10:16 PM AKDT
Nautical Twilight 6:32 AM AKDT 11:27 PM AKDT
Astronomical Twilight 5:02 AM AKDT 1:00 AM AKDT
Moon 6:20 AM AKDT (3/23) 10:59 AM AKDT (3/23)
Length of Visible Light 14h 33m
Length of Day
12h 42m
Waning Gibbous, 53% of the Moon is Illuminated
Mar 23
Waning Gibbous
Mar 23
Last Quarter
Mar 30
New
Apr 7
First Quarter
Apr 14
Full

Hourly Weather History & Observations

Time (AKDT) Temp. Windchill Dew Point Humidity Pressure Visibility Wind Dir Wind Speed Gust Speed Precip Events Conditions
12:16 AM 1.4 °F -8.3 °F -2.2 °F 85% 30.64 in 10.0 mi North 4.6 mph - N/A   Clear
12:36 AM 3.2 °F -7.8 °F -4.0 °F 72% 30.64 in 10.0 mi North 5.8 mph - N/A   Clear
12:56 AM 1.4 °F -9.9 °F -14.8 °F 47% 30.64 in 10.0 mi NNE 5.8 mph - N/A   Clear
1:16 AM 3.2 °F -6.2 °F -0.4 °F 85% 30.63 in 10.0 mi NNE 4.6 mph - N/A   Clear
1:36 AM -0.4 °F -12.0 °F -13.0 °F 55% 30.63 in 10.0 mi North 5.8 mph - N/A   Clear
1:56 AM 3.2 °F -9.1 °F -5.8 °F 66% 30.63 in 10.0 mi North 6.9 mph - N/A   Clear
2:16 AM 5.0 °F -5.6 °F 3.2 °F 92% 30.63 in 10.0 mi NNE 5.8 mph - N/A   Clear
2:36 AM 5.0 °F -2.1 °F -2.2 °F 72% 30.62 in 10.0 mi NNE 3.5 mph - N/A   Clear
2:56 AM 5.0 °F -4.1 °F -9.4 °F 52% 30.63 in 10.0 mi North 4.6 mph - N/A   Clear
3:16 AM 3.2 °F -7.8 °F -7.6 °F 61% 30.62 in 10.0 mi North 5.8 mph - N/A   Clear
3:36 AM 3.2 °F -6.2 °F -2.2 °F 78% 30.63 in 10.0 mi North 4.6 mph - N/A   Clear
3:56 AM 3.2 °F -9.1 °F -9.4 °F 56% 30.62 in 10.0 mi North 6.9 mph - N/A   Clear
4:16 AM 1.4 °F -9.9 °F -13.0 °F 51% 30.62 in 10.0 mi North 5.8 mph - N/A   Clear
4:36 AM 3.2 °F -4.2 °F -4.0 °F 72% 30.61 in 10.0 mi NNE 3.5 mph - N/A   Clear
4:56 AM 3.2 °F - -5.8 °F 66% 30.61 in 10.0 mi Calm Calm - N/A   Clear
5:16 AM 3.2 °F -9.1 °F -5.8 °F 66% 30.60 in 10.0 mi North 6.9 mph - N/A   Clear
5:36 AM -0.4 °F - -5.8 °F 78% 30.61 in 10.0 mi Calm Calm - N/A   Clear
5:56 AM 1.4 °F - -2.2 °F 85% 30.61 in 10.0 mi Calm Calm - N/A   Clear
6:16 AM 1.4 °F - -7.6 °F 66% 30.60 in 10.0 mi Calm Calm - N/A   Clear
6:36 AM -0.4 °F -12.0 °F -13.0 °F 55% 30.59 in 10.0 mi North 5.8 mph - N/A   Clear
6:56 AM 1.4 °F -13.5 °F -9.4 °F 61% 30.59 in 10.0 mi NNW 9.2 mph - N/A   Clear
7:16 AM -0.4 °F -10.4 °F -2.2 °F 92% 30.59 in 10.0 mi North 4.6 mph - N/A   Clear
7:36 AM 1.4 °F -8.3 °F -9.4 °F 61% 30.59 in 10.0 mi North 4.6 mph - N/A   Clear
7:56 AM 3.2 °F -6.2 °F -14.8 °F 43% 30.58 in 10.0 mi NNE 4.6 mph - N/A   Clear
8:16 AM 3.2 °F -4.2 °F -0.4 °F 85% 30.58 in 10.0 mi North 3.5 mph - N/A   Clear
8:36 AM 1.4 °F - -9.4 °F 61% 30.58 in 10.0 mi Calm Calm - N/A   Clear
8:56 AM 1.4 °F - -9.4 °F 61% 30.58 in 10.0 mi Calm Calm - N/A   Clear
9:16 AM 3.2 °F - -0.4 °F 85% 30.58 in 10.0 mi Calm Calm - N/A   Clear
9:36 AM 1.4 °F -6.2 °F -5.8 °F 72% 30.57 in 10.0 mi North 3.5 mph - N/A   Clear
9:56 AM 1.4 °F -12.5 °F -5.8 °F 72% 30.57 in 10.0 mi North 8.1 mph - N/A   Clear
10:16 AM 3.2 °F - -5.8 °F 66% 30.57 in 10.0 mi Calm Calm - N/A   Clear
10:36 AM 6.8 °F -4.8 °F -7.6 °F 52% 30.56 in 10.0 mi NNE 6.9 mph - N/A   Clear
10:56 AM 10.4 °F 0.8 °F -9.4 °F 41% 30.56 in 10.0 mi NNE 5.8 mph - N/A   Clear
11:16 AM 12.2 °F 0.7 °F 1.4 °F 62% 30.56 in 10.0 mi NNE 8.1 mph - N/A   Clear
11:36 AM 12.2 °F 1.7 °F -0.4 °F 57% 30.56 in 10.0 mi NE 6.9 mph - N/A   Unknown
11:56 AM 12.2 °F 1.7 °F 1.4 °F 62% 30.55 in 10.0 mi NE 6.9 mph - N/A   Unknown
12:16 PM 12.2 °F 1.7 °F 1.4 °F 62% 30.55 in 10.0 mi ENE 6.9 mph - N/A   Unknown
12:36 PM 15.8 °F 5.1 °F 1.4 °F 53% 30.55 in 10.0 mi ENE 8.1 mph - N/A   Clear
12:56 PM 15.8 °F 7.2 °F 1.4 °F 53% 30.54 in 10.0 mi NNE 5.8 mph - N/A   Clear
1:16 PM 17.6 °F 7.3 °F 1.4 °F 49% 30.54 in 10.0 mi ENE 8.1 mph - N/A   Clear
1:36 PM 17.6 °F 6.4 °F 3.2 °F 53% 30.54 in 10.0 mi NE 9.2 mph - N/A   Clear
1:56 PM 19.4 °F 8.6 °F 3.2 °F 49% 30.53 in 10.0 mi NE 9.2 mph - N/A   Clear
2:16 PM 19.4 °F 10.4 °F 6.8 °F 58% 30.53 in 10.0 mi NE 6.9 mph - N/A   Clear
2:36 PM 21.2 °F 12.6 °F 5.0 °F 50% 30.52 in 10.0 mi NE 6.9 mph - N/A   Clear
2:56 PM 21.2 °F 13.6 °F 6.8 °F 54% 30.51 in 10.0 mi NNE 5.8 mph - N/A   Clear
3:16 PM 23.0 °F 17.0 °F 6.8 °F 50% 30.51 in 10.0 mi NE 4.6 mph - N/A   Clear
3:36 PM 23.0 °F 14.7 °F 3.2 °F 43% 30.51 in 10.0 mi ENE 6.9 mph - N/A   Clear
3:56 PM 23.0 °F 14.7 °F 5.0 °F 46% 30.50 in 10.0 mi NE 6.9 mph - N/A   Clear
4:16 PM 24.8 °F 15.3 °F 6.8 °F 46% 30.49 in 10.0 mi NE 9.2 mph - N/A   Clear
4:36 PM 24.8 °F 15.3 °F 6.8 °F 46% 30.48 in 10.0 mi NE 9.2 mph - N/A   Clear
4:56 PM 24.8 °F 15.3 °F 6.8 °F 46% 30.47 in 10.0 mi NE 9.2 mph - N/A   Clear
5:16 PM 24.8 °F 14.6 °F 8.6 °F 50% 30.47 in 10.0 mi NE 10.4 mph - N/A   Clear
5:36 PM 24.8 °F 16.9 °F 8.6 °F 50% 30.46 in 10.0 mi NE 6.9 mph - N/A   Clear
5:56 PM 24.8 °F 14.6 °F 8.6 °F 50% 30.46 in 10.0 mi NE 10.4 mph - N/A   Clear
6:16 PM 26.6 °F 16.8 °F 8.6 °F 47% 30.45 in 10.0 mi NE 10.4 mph - N/A   Clear
6:36 PM 26.6 °F 18.2 °F 8.6 °F 47% 30.44 in 10.0 mi NE 8.1 mph - N/A   Clear
6:56 PM 24.8 °F 17.9 °F 8.6 °F 50% 30.44 in 10.0 mi ENE 5.8 mph - N/A   Clear
7:16 PM 24.8 °F - 8.6 °F 50% 30.44 in 10.0 mi Calm Calm - N/A   Clear
7:36 PM 23.0 °F 13.1 °F 8.6 °F 54% 30.43 in 10.0 mi ENE 9.2 mph - N/A   Clear
7:56 PM 21.2 °F 11.7 °F 8.6 °F 58% 30.43 in 10.0 mi NNE 8.1 mph - N/A   Clear
8:16 PM 21.2 °F 12.6 °F 6.8 °F 54% 30.43 in 10.0 mi NNE 6.9 mph - N/A   Clear
8:36 PM 19.4 °F 9.5 °F 6.8 °F 58% 30.43 in 10.0 mi North 8.1 mph - N/A   Clear
8:56 PM 19.4 °F 10.4 °F 6.8 °F 58% 30.42 in 10.0 mi North 6.9 mph - N/A   Clear
9:16 PM 17.6 °F 6.4 °F 5.0 °F 58% 30.42 in 10.0 mi North 9.2 mph - N/A   Clear
9:36 PM 15.8 °F - 3.2 °F 58% 30.42 in 10.0 mi Calm Calm - N/A   Clear
9:56 PM 19.4 °F - 6.8 °F 58% 30.42 in 10.0 mi Calm Calm - N/A   Clear
10:16 PM 17.6 °F 12.3 °F 6.8 °F 63% 30.41 in 10.0 mi NNE 3.5 mph - N/A   Clear
10:36 PM 15.8 °F 7.2 °F -0.4 °F 49% 30.42 in 10.0 mi North 5.8 mph - N/A   Clear
10:56 PM 12.2 °F - 3.2 °F 67% 30.42 in 10.0 mi Calm Calm - N/A   Clear
11:16 PM 19.4 °F 14.3 °F 5.0 °F 54% 30.42 in 10.0 mi NNE 3.5 mph - N/A   Clear
11:36 PM 12.2 °F 2.9 °F 3.2 °F 67% 30.42 in 10.0 mi NW 5.8 mph - N/A   Clear
11:56 PM 14.0 °F 8.2 °F 3.2 °F 62% 30.42 in 10.0 mi NW 3.5 mph - N/A   Clear